When you browse on this site, cookies collect data to enhance your experience and personalize the content and advertising you see.
Visit our Privacy Policy to learn more. By continuing to use the site, you agree to this use of cookies and data.
  • In Germany
  • List of Countries
  • For 7 days
  • Water Temperature
  • Weather Map
  • Weather Widgets
  • user-avatar
    Login

    Hourly Weather Yelsk

    Today, 27 May, Wednesday

    Time Temperature Precipitation Wind Pressure Humidity
    00:00 +10°C° 0 mm 2 mps 753 mmHg 90%
    01:00 +10°C° 0 mm 2 mps 753 mmHg 89%
    02:00 +10°C° 0 mm 2 mps 753 mmHg 89%
    03:00 +10°C° 0.2 mm 2 mps 753 mmHg 90%
    04:00 +10°C° 0.2 mm 2 mps 753 mmHg 91%
    05:00 +10°C° 0.2 mm 2 mps 753 mmHg 92%
    06:00 +10°C° 0.1 mm 2 mps 753 mmHg 91%
    07:00 +10°C° 0.1 mm 2 mps 753 mmHg 90%
    08:00 +12°C° 0 mm 2 mps 753 mmHg 89%
    09:00 +12°C° 0.1 mm 2 mps 753 mmHg 87%
    10:00 +13°C° 0.1 mm 2 mps 753 mmHg 86%
    11:00 +12°C° 0.1 mm 3 mps 753 mmHg 85%
    12:00 +15°C° 0.2 mm 2 mps 752 mmHg 77%
    13:00 +16°C° 0.2 mm 2 mps 752 mmHg 69%
    14:00 +18°C° 0.2 mm 2 mps 752 mmHg 61%
    15:00 +17°C° 0.5 mm 2 mps 752 mmHg 65%
    16:00 +17°C° 0.5 mm 2 mps 751 mmHg 69%
    17:00 +17°C° 0.5 mm 2 mps 751 mmHg 72%
    18:00 +15°C° 0.4 mm 2 mps 751 mmHg 78%
    19:00 +14°C° 0.4 mm 2 mps 751 mmHg 84%
    20:00 +12°C° 0.4 mm 1 mps 751 mmHg 90%
    21:00 +12°C° 0 mm 1 mps 751 mmHg 91%
    22:00 +11°C° 0 mm 1 mps 751 mmHg 92%
    23:00 +10°C° 0 mm 1 mps 751 mmHg 93%

    Tomorrow, 28 May, Thursday

    Time Temperature Precipitation Wind Pressure Humidity
    00:00 +10°C° 0 mm 1 mps 751 mmHg 93%
    01:00 +10°C° 0 mm 1 mps 751 mmHg 94%
    02:00 +10°C° 0 mm 1 mps 751 mmHg 94%
    03:00 +10°C° 0 mm 1 mps 751 mmHg 95%
    04:00 +9°C° 0 mm 2 mps 750 mmHg 95%
    05:00 +9°C° 0 mm 2 mps 750 mmHg 96%
    06:00 +10°C° 0 mm 2 mps 750 mmHg 91%
    07:00 +13°C° 0 mm 2 mps 750 mmHg 87%
    08:00 +14°C° 0 mm 3 mps 750 mmHg 82%
    09:00 +16°C° 0.1 mm 3 mps 749 mmHg 75%
    10:00 +18°C° 0.1 mm 4 mps 749 mmHg 68%
    11:00 +19°C° 0.1 mm 4 mps 748 mmHg 61%
    12:00 +19°C° 0.5 mm 4 mps 748 mmHg 63%
    13:00 +19°C° 0.5 mm 5 mps 748 mmHg 66%
    14:00 +19°C° 0.5 mm 5 mps 747 mmHg 68%
    15:00 +17°C° 0.4 mm 5 mps 747 mmHg 72%
    16:00 +18°C° 0.4 mm 4 mps 746 mmHg 75%
    17:00 +17°C° 0.4 mm 4 mps 746 mmHg 79%
    18:00 +15°C° 0.2 mm 4 mps 745 mmHg 82%
    19:00 +14°C° 0.2 mm 4 mps 745 mmHg 86%
    20:00 +13°C° 0.2 mm 4 mps 744 mmHg 90%
    21:00 +13°C° 3.1 mm 5 mps 743 mmHg 92%
    22:00 +11°C° 3.1 mm 6 mps 743 mmHg 93%
    23:00 +11°C° 3.1 mm 7 mps 742 mmHg 95%

    Day after tomorrow, 29 May, Friday

    Time Temperature Precipitation Wind Pressure Humidity
    00:00 +11°C° 1.7 mm 7 mps 742 mmHg 95%
    01:00 +11°C° 1.7 mm 6 mps 741 mmHg 95%
    02:00 +11°C° 1.7 mm 6 mps 740 mmHg 95%
    03:00 +12°C° 0.2 mm 5 mps 740 mmHg 96%
    04:00 +12°C° 0.2 mm 4 mps 740 mmHg 97%
    05:00 +13°C° 0.2 mm 3 mps 740 mmHg 97%
    06:00 +13°C° 0.2 mm 3 mps 740 mmHg 95%
    07:00 +14°C° 0.2 mm 3 mps 740 mmHg 93%
    08:00 +14°C° 0.2 mm 4 mps 740 mmHg 91%
    09:00 +14°C° 0.5 mm 4 mps 740 mmHg 90%
    10:00 +15°C° 0.5 mm 4 mps 740 mmHg 89%
    11:00 +15°C° 0.5 mm 4 mps 740 mmHg 88%
    12:00 +17°C° 0.4 mm 3 mps 740 mmHg 84%
    13:00 +17°C° 0.4 mm 3 mps 740 mmHg 79%
    14:00 +18°C° 0.4 mm 3 mps 739 mmHg 75%
    15:00 +18°C° 0.4 mm 3 mps 739 mmHg 76%
    16:00 +18°C° 0.4 mm 2 mps 739 mmHg 76%
    17:00 +18°C° 0.4 mm 2 mps 739 mmHg 76%
    18:00 +17°C° 0.3 mm 2 mps 739 mmHg 81%
    19:00 +16°C° 0.3 mm 2 mps 739 mmHg 86%
    20:00 +15°C° 0.3 mm 2 mps 739 mmHg 91%
    21:00 +14°C° 0.1 mm 1 mps 740 mmHg 92%
    22:00 +14°C° 0.1 mm 1 mps 740 mmHg 94%
    23:00 +13°C° 0.1 mm 1 mps 740 mmHg 95%

    30 May, Saturday

    Time Temperature Precipitation Wind Pressure Humidity
    00:00 +13°C° 0 mm 1 mps 740 mmHg 95%
    01:00 +12°C° 0 mm 1 mps 740 mmHg 96%
    02:00 +11°C° 0 mm 1 mps 740 mmHg 97%
    03:00 +12°C° 0 mm 1 mps 740 mmHg 97%
    04:00 +12°C° 0 mm 1 mps 740 mmHg 97%
    05:00 +12°C° 0 mm 1 mps 740 mmHg 98%
    06:00 +13°C° 0 mm 1 mps 740 mmHg 96%
    07:00 +14°C° 0 mm 1 mps 740 mmHg 94%
    08:00 +14°C° 0 mm 1 mps 740 mmHg 92%
    09:00 +15°C° 0 mm 1 mps 740 mmHg 88%
    10:00 +16°C° 0 mm 2 mps 740 mmHg 84%
    11:00 +17°C° 0 mm 2 mps 740 mmHg 80%
    12:00 +17°C° 1.3 mm 2 mps 740 mmHg 84%
    13:00 +16°C° 1.3 mm 3 mps 739 mmHg 87%
    14:00 +16°C° 1.3 mm 3 mps 739 mmHg 91%
    15:00 +14°C° 2.6 mm 3 mps 739 mmHg 93%
    16:00 +14°C° 2.6 mm 4 mps 739 mmHg 94%
    17:00 +13°C° 2.6 mm 4 mps 738 mmHg 96%
    18:00 +13°C° 1.2 mm 4 mps 738 mmHg 96%
    19:00 +13°C° 1.2 mm 4 mps 738 mmHg 97%
    20:00 +13°C° 1.2 mm 4 mps 738 mmHg 97%
    21:00 +13°C° 0 mm 3 mps 738 mmHg 97%
    22:00 +13°C° 0 mm 3 mps 738 mmHg 97%
    23:00 +14°C° 0 mm 2 mps 738 mmHg 97%

    31 May, Sunday

    Time Temperature Precipitation Wind Pressure Humidity
    00:00 +13°C° 0.1 mm 2 mps 738 mmHg 97%
    01:00 +12°C° 0.1 mm 3 mps 738 mmHg 97%
    02:00 +12°C° 0.1 mm 3 mps 738 mmHg 97%
    03:00 +12°C° 0.4 mm 3 mps 738 mmHg 97%
    04:00 +12°C° 0.4 mm 3 mps 738 mmHg 97%
    05:00 +12°C° 0.4 mm 2 mps 738 mmHg 97%
    06:00 +13°C° 0.1 mm 2 mps 739 mmHg 96%
    07:00 +13°C° 0.1 mm 2 mps 739 mmHg 95%
    08:00 +14°C° 0.1 mm 2 mps 739 mmHg 94%
    09:00 +14°C° 0 mm 1 mps 740 mmHg 92%
    10:00 +15°C° 0 mm 1 mps 740 mmHg 89%
    11:00 +16°C° 0 mm 1 mps 741 mmHg 87%
    12:00 +16°C° 0.3 mm 1 mps 741 mmHg 90%
    13:00 +15°C° 0.3 mm 1 mps 742 mmHg 92%
    14:00 +15°C° 0.3 mm 1 mps 742 mmHg 95%
    15:00 +15°C° 0.4 mm 2 mps 742 mmHg 94%
    16:00 +16°C° 0.4 mm 2 mps 743 mmHg 94%
    17:00 +16°C° 0.4 mm 2 mps 743 mmHg 93%
    18:00 +16°C° 0.4 mm 2 mps 743 mmHg 94%
    19:00 +15°C° 0.4 mm 2 mps 744 mmHg 94%
    20:00 +15°C° 0.4 mm 2 mps 744 mmHg 95%
    21:00 +13°C° 0 mm 3 mps 745 mmHg 94%
    22:00 +13°C° 0 mm 3 mps 745 mmHg 94%
    23:00 +12°C° 0 mm 3 mps 745 mmHg 94%

    1 June, Monday

    Time Temperature Precipitation Wind Pressure Humidity
    00:00 +11°C° 0 mm 3 mps 746 mmHg 93%
    01:00 +11°C° 0 mm 3 mps 746 mmHg 92%
    02:00 +10°C° 0 mm 3 mps 746 mmHg 92%
    03:00 +10°C° 0 mm 3 mps 746 mmHg 92%
    04:00 +9°C° 0 mm 3 mps 747 mmHg 93%
    05:00 +9°C° 0 mm 3 mps 747 mmHg 94%
    06:00 +10°C° 0 mm 3 mps 748 mmHg 89%
    07:00 +12°C° 0 mm 3 mps 748 mmHg 85%
    08:00 +13°C° 0 mm 4 mps 748 mmHg 81%
    09:00 +14°C° 0 mm 4 mps 749 mmHg 73%
    10:00 +17°C° 0 mm 4 mps 749 mmHg 65%
    11:00 +17°C° 0 mm 5 mps 749 mmHg 57%
    12:00 +18°C° 0 mm 4 mps 749 mmHg 56%
    13:00 +18°C° 0 mm 4 mps 749 mmHg 55%
    14:00 +19°C° 0 mm 4 mps 749 mmHg 54%
    15:00 +18°C° 0 mm 4 mps 749 mmHg 55%
    16:00 +18°C° 0 mm 4 mps 749 mmHg 57%
    17:00 +18°C° 0 mm 4 mps 749 mmHg 59%
    18:00 +15°C° 0 mm 4 mps 749 mmHg 65%
    19:00 +13°C° 0 mm 3 mps 749 mmHg 71%
    20:00 +12°C° 0 mm 2 mps 749 mmHg 77%
    21:00 +10°C° 0 mm 2 mps 749 mmHg 79%
    22:00 +10°C° 0 mm 2 mps 749 mmHg 82%
    23:00 +9°C° 0 mm 2 mps 749 mmHg 85%
    Show more